Total_Precipitation_Accumulation
2.47 2.52 2.50 2.58 2.37 2.47 2.77 2.85 2.68 2.87 2.95 2.74 2.49 2.23 2.13 1.96 1.85 1.88 1.98 1.89 1.84 1.91 2.17 2.33 2.17 2.00 1.82 1.62 1.44 1.33 1.27 1.19 1.14 0.97 0.81 0.77 0.84 0.82 0.72 0.65 0.59 0.51 0.48
2.84 2.95 2.81 2.86 2.65 2.54 2.70 2.81 2.82 3.38 3.31 3.16 2.64 2.34 2.28 2.21 2.04 2.08 2.15 2.21 1.94 1.80 1.94 2.34 2.50 2.43 2.25 1.98 1.75 1.59 1.46 1.36 1.23 0.98 0.83 0.77 0.84 0.93 0.89 0.81 0.70 0.57 0.46
2.96 3.07 3.11 3.05 2.87 2.72 2.86 2.90 3.11 3.36 3.10 2.96 2.68 2.50 2.38 2.26 2.05 2.06 2.30 2.52 2.23 1.98 1.85 2.03 2.36 2.53 2.55 2.49 2.31 2.01 1.71 1.47 1.32 1.09 0.91 0.82 0.82 0.90 0.88 0.88 0.82 0.66 0.48
3.03 3.20 3.06 2.94 3.06 3.07 3.18 3.36 3.43 3.41 3.28 3.15 2.95 2.60 2.39 2.35 1.89 1.86 2.00 2.16 2.29 2.03 2.10 2.24 2.42 2.47 2.68 2.85 2.85 2.78 2.41 1.87 1.55 1.32 1.09 0.92 0.92 0.95 0.89 0.88 0.84 0.70 0.53
2.89 3.13 3.09 3.14 3.19 3.24 3.28 3.00 3.43 3.41 3.41 3.26 2.70 2.51 2.22 2.13 1.99 1.71 1.73 1.71 1.86 1.91 1.94 2.08 2.26 2.26 2.63 3.12 3.33 3.36 3.20 2.65 2.06 1.74 1.57 1.36 1.23 1.12 0.99 0.94 0.90 0.78 0.62
3.01 3.22 3.19 3.26 3.29 3.38 3.40 3.35 3.56 3.49 3.32 3.22 2.50 2.32 2.11 1.75 1.75 1.72 1.55 1.54 1.62 1.56 1.67 1.95 2.24 1.91 2.29 2.74 3.00 3.29 3.58 3.42 2.86 2.39 2.20 2.04 1.81 1.52 1.23 1.13 1.08 1.00 0.84
3.15 3.45 3.33 3.57 3.50 3.28 3.23 3.33 3.54 3.39 3.13 3.16 3.07 2.54 1.97 1.64 1.66 1.53 1.61 1.75 1.63 1.63 1.84 2.17 2.34 2.22 2.00 2.01 2.07 2.46 3.17 3.68 3.59 3.13 2.76 2.49 2.35 2.14 1.67 1.50 1.41 1.31 1.19
3.08 3.09 3.36 3.25 3.25 3.33 3.24 3.25 3.47 3.27 2.85 2.96 3.17 3.07 2.38 2.11 1.69 1.26 1.52 1.65 1.72 1.92 2.00 2.04 2.38 2.56 2.34 2.45 1.90 1.83 2.51 3.33 3.79 3.78 3.35 2.95 2.70 2.52 2.18 2.05 1.83 1.56 1.41
2.69 2.80 2.88 2.94 3.24 3.18 3.21 3.28 3.22 3.11 2.81 2.74 2.88 3.09 2.64 2.24 1.80 1.31 1.24 1.51 1.87 2.04 1.96 2.05 2.16 2.39 2.52 2.77 2.64 2.21 2.11 2.34 3.06 3.79 3.83 3.50 2.99 2.60 2.55 2.63 2.46 2.00 1.66
2.59 2.62 2.65 2.69 2.76 2.69 2.83 2.58 2.69 2.91 3.03 2.76 2.82 2.73 2.60 2.46 2.33 1.87 1.52 1.50 1.77 1.93 2.04 1.95 1.99 2.17 2.49 2.93 3.04 2.54 2.11 1.90 2.17 3.06 3.71 3.79 3.40 2.97 2.91 3.05 3.19 2.86 2.27
2.65 2.62 2.60 2.56 2.43 2.32 2.45 2.46 2.64 2.65 2.67 2.62 2.66 2.71 2.75 2.69 2.50 2.37 2.10 1.99 1.92 1.67 1.73 1.81 1.88 2.00 2.25 2.68 2.90 2.58 2.47 2.19 2.07 2.22 2.68 3.16 3.33 3.25 3.12 3.23 3.60 3.71 3.33
2.46 2.42 2.39 2.38 2.25 2.24 2.32 2.40 2.48 2.42 2.46 2.58 2.58 2.59 2.73 2.70 2.70 2.72 2.34 2.18 2.02 1.58 1.54 1.53 1.67 1.81 2.13 2.41 2.23 2.26 2.22 2.07 1.93 1.91 1.98 2.32 2.64 2.84 2.98 3.25 3.72 4.14 4.21
1.99 2.07 2.01 2.09 2.08 2.12 2.16 2.27 2.34 2.31 2.42 2.58 2.52 2.54 2.57 2.49 2.56 2.65 2.57 2.25 2.07 1.76 1.78 1.70 1.64 1.79 1.89 2.19 2.11 1.94 1.74 1.68 1.57 1.56 1.54 1.67 1.91 2.13 2.37 2.69 3.18 3.67 4.01
1.66 1.84 1.99 2.02 2.01 2.01 2.05 2.28 2.15 2.16 2.33 2.38 2.33 2.68 2.55 2.31 2.41 2.50 2.66 2.76 2.45 2.10 2.10 1.97 1.84 1.85 1.94 2.03 1.91 1.77 1.56 1.50 1.37 1.31 1.27 1.29 1.35 1.48 1.66 1.90 2.21 2.48 2.77
1.69 1.78 1.86 1.97 2.00 2.09 2.20 2.28 2.15 2.28 2.50 2.39 2.49 2.71 2.59 2.46 2.46 2.45 2.67 2.93 2.93 2.58 2.29 2.12 1.95 1.84 1.84 1.79 1.81 1.69 1.61 1.57 1.38 1.27 1.21 1.15 1.13 1.14 1.23 1.37 1.56 1.73 1.86
1.72 1.67 1.67 1.76 1.78 1.86 2.02 2.16 2.09 2.23 2.48 2.44 2.44 2.56 2.56 2.50 2.68 2.65 2.70 2.91 3.07 2.96 2.44 2.25 2.17 1.87 1.93 1.62 1.71 1.62 1.57 1.53 1.35 1.24 1.18 1.15 1.13 1.11 1.11 1.15 1.25 1.37 1.52
1.68 1.62 1.63 1.66 1.65 1.62 1.70 1.85 1.86 2.06 2.11 2.11 2.05 2.14 2.16 2.39 2.58 2.54 2.63 2.74 2.92 3.07 2.71 2.52 2.58 2.34 2.30 2.05 1.85 1.64 1.42 1.40 1.29 1.26 1.17 1.11 1.08 1.06 1.09 1.06 1.04 1.10 1.21
1.55 1.63 1.70 1.60 1.48 1.52 1.63 1.65 1.72 1.94 1.99 1.96 1.97 2.06 1.97 2.14 2.26 2.29 2.48 2.59 2.81 3.15 2.99 2.75 2.71 2.60 2.48 2.28 2.08 1.83 1.42 1.22 1.26 1.38 1.21 1.08 1.03 1.01 1.04 1.04 0.99 0.97 0.99
1.42 1.49 1.55 1.49 1.47 1.57 1.75 1.85 1.95 1.97 1.84 1.81 1.80 1.75 1.74 1.91 1.95 2.10 2.25 2.26 2.42 2.80 2.84 2.59 2.52 2.73 2.59 2.35 2.37 2.04 1.79 1.72 1.30 1.29 1.23 1.05 0.99 0.94 0.96 1.02 1.03 0.97 0.93
1.43 1.49 1.54 1.64 1.72 1.72 1.69 1.71 1.80 1.88 1.85 1.70 1.54 1.43 1.46 1.62 1.67 1.81 1.87 2.02 2.19 2.32 2.50 2.48 2.39 2.54 2.58 2.46 2.63 2.41 2.20 2.03 1.69 1.38 1.38 1.16 1.06 1.00 0.98 0.98 0.99 1.02 1.04
1.36 1.52 1.68 1.78 1.81 1.74 1.58 1.62 1.69 1.57 1.58 1.51 1.36 1.21 1.14 1.18 1.25 1.38 1.39 1.64 1.89 2.02 2.10 2.23 2.27 2.36 2.58 2.68 2.57 2.54 2.37 2.19 2.03 1.86 1.83 1.44 1.15 1.00 0.99 0.99 1.01 1.05 1.08
1.36 1.51 1.56 1.61 1.59 1.43 1.51 1.40 1.34 1.33 1.35 1.36 1.37 1.33 1.17 1.06 1.04 1.09 1.12 1.20 1.38 1.53 1.72 1.97 2.05 2.15 2.40 2.68 2.73 2.73 2.63 2.42 2.21 2.04 2.18 2.13 1.75 1.45 1.24 1.02 1.01 1.05 1.13
1.46 1.46 1.41 1.44 1.46 1.58 1.45 1.23 1.15 1.14 1.26 1.30 1.34 1.32 1.10 0.98 1.04 1.01 1.07 1.07 1.13 1.19 1.28 1.52 1.65 1.70 1.96 2.29 2.61 2.67 2.76 2.61 2.40 2.35 2.45 2.49 2.53 2.28 1.70 1.34 1.27 1.11 1.14
1.55 1.49 1.35 1.36 1.38 1.36 1.32 1.17 1.14 1.07 1.12 1.21 1.27 1.30 1.29 1.24 1.14 1.17 1.19 1.12 1.03 1.05 1.06 1.03 1.11 1.31 1.49 1.74 2.13 2.33 2.64 2.83 2.69 2.58 2.62 2.69 2.69 2.90 2.40 1.85 1.67 1.41 1.34
1.53 1.57 1.46 1.40 1.37 1.36 1.31 1.16 1.12 1.07 1.16 1.22 1.31 1.31 1.29 1.22 1.23 1.18 1.19 1.18 1.07 1.00 0.98 0.97 0.95 1.06 1.26 1.40 1.70 2.05 2.35 2.56 2.65 2.71 2.76 2.81 2.72 2.86 3.14 2.69 1.99 1.63 1.40
1.70 1.72 1.63 1.56 1.58 1.61 1.62 1.41 1.30 1.17 1.23 1.29 1.41 1.38 1.25 1.13 1.19 1.13 1.04 1.10 1.09 1.09 1.13 1.09 1.08 1.11 1.17 1.32 1.56 1.84 2.11 2.38 2.42 2.49 2.33 2.30 2.32 2.46 2.89 3.10 2.72 2.11 1.64